Location: Unspecified
(0.0000°N, 0.0000°E)
Time: 20:16:13
(UTC+00:00)

Tiros 1 - Pass Details

Date: 20 October 2021
Orbit: 630 x 664 km, 48.4° (Epoch: 04 December)

Event Time Altitude Azimuth Distance (km) Brightness Sun altitude
Rises 07:06:27 0° 187° (S) 2,989 10.6 20.1°
Reaches altitude 10° 07:09:55 10° 161° (SSE) 2,077 10.3 20.9°
Maximum altitude 07:12:21 14° 130° (SE) 1,832 10.8 21.5°
Drops below altitude 10° 07:14:47 10° 100° (E) 2,073 12.0 22.1°
Sets 07:18:14 0° 74° (ENE) 2,980 11.6 22.9°
